FW9036 Weather Reports


time (UTC)temp
C
wind
direction
speed
KPH
gust
KPH
rain 1hr
cm
rain 24hr
cm
rain mn
cm
humidity
%
barometer
mb
20260506205126 33 177 4.8 6.4 0.00 0.00 0.00 44 1015.5
20260506204625 34 0 0.0 6.4 0.00 0.00 0.00 43 1015.8
20260506204121 34 180 4.8 4.8 0.00 0.00 0.00 42 1015.6
20260506203619 33 166 3.2 9.7 0.00 0.00 0.00 44 1015.6
20260506203116 33 234 0.0 9.7 0.00 0.00 0.00 45 1015.8
20260506202614 33 320 8.0 9.7 0.00 0.00 0.00 44 1015.7
20260506202110 33 295 4.8 6.4 0.00 0.00 0.00 44 1015.9
20260506201607 33 115 4.8 11.3 0.00 0.00 0.00 45 1015.9
20260506201103 33 116 8.0 11.3 0.00 0.00 0.00 45 1015.8
20260506200600 33 118 6.4 9.7 0.00 0.00 0.00 46 1016.3
20260506200056 33 97 4.8 11.3 0.00 0.00 0.00 45 1016.0
20260506195553 33 154 1.6 8.0 0.00 0.00 0.00 47 1016.0
20260506195049 33 109 3.2 9.7 0.00 0.00 0.00 45 1016.0
20260506194548 33 148 0.0 4.8 0.00 0.00 0.00 46 1016.3
20260506194043 33 130 4.8 9.7 0.00 0.00 0.00 46 1016.1
20260506193541 32 95 3.2 9.7 0.00 0.00 0.00 47 1016.4
20260506193038 33 146 11.3 11.3 0.00 0.00 0.00 47 1016.7
20260506192535 32 104 9.7 9.7 0.00 0.00 0.00 47 1016.6
20260506192031 33 81 3.2 6.4 0.00 0.00 0.00 48 1016.6
20260506191528 32 78 6.4 9.7 0.00 0.00 0.00 48 1016.7
20260506191024 31 101 6.4 12.9 0.00 0.00 0.00 48 1016.8
20260506190521 32 161 6.4 9.7 0.00 0.00 0.00 48 1017.0
20260506190019 32 130 6.4 12.9 0.00 0.00 0.00 49 1017.0
20260506185515 32 138 4.8 6.4 0.00 0.00 0.00 49 1016.9
20260506185012 32 290 6.4 9.7 0.00 0.00 0.00 51 1017.2
20260506184509 32 0 0.0 12.9 0.00 0.00 0.00 51 1017.1
20260506184006 32 162 4.8 8.0 0.00 0.00 0.00 51 1017.1
20260506183502 31 142 3.2 8.0 0.00 0.00 0.00 52 1017.2
20260506182959 32 303 4.8 8.0 0.00 0.00 0.00 50 1017.5
20260506182456 32 99 3.2 8.0 0.00 0.00 0.00 52 1017.4
20260506181953 31 141 4.8 12.9 0.00 0.00 0.00 52 1017.5
20260506181451 32 82 1.6 4.8 0.00 0.00 0.00 53 1017.5
20260506180948 31 99 6.4 14.5 0.00 0.00 0.00 53 1017.6
20260506180444 31 99 3.2 11.3 0.00 0.00 0.00 54 1017.6
20260506175941 31 98 4.8 8.0 0.00 0.00 0.00 53 1017.6
20260506175438 31 289 9.7 11.3 0.00 0.00 0.00 54 1017.7
20260506174934 31 222 4.8 6.4 0.00 0.00 0.00 55 1017.6
20260506174432 30 188 4.8 8.0 0.00 0.00 0.00 55 1017.8
20260506173929 30 335 4.8 11.3 0.00 0.00 0.00 57 1017.8
20260506173426 31 140 3.2 4.8 0.00 0.00 0.00 57 1017.9
20260506172923 30 121 4.8 9.7 0.00 0.00 0.00 57 1018.1
20260506172420 30 112 11.3 12.9 0.00 0.00 0.00 57 1018.3
20260506171917 30 76 4.8 6.4 0.00 0.00 0.00 58 1018.2
20260506171414 30 72 3.2 11.3 0.00 0.00 0.00 59 1018.1
20260506170912 30 184 3.2 4.8 0.00 0.00 0.00 58 1018.4
20260506170407 30 80 3.2 6.4 0.00 0.00 0.00 60 1018.3
20260506165901 29 109 0.0 8.0 0.00 0.00 0.00 61 1018.3
20260506165359 30 77 4.8 8.0 0.00 0.00 0.00 60 1018.7
20260506164855 29 270 8.0 9.7 0.00 0.00 0.00 60 1018.6
20260506164351 30 249 0.0 4.8 0.00 0.00 0.00 59 1018.7
20260506163850 28 128 0.0 9.7 0.00 0.00 0.00 62 1018.8
20260506163343 28 154 1.6 9.7 0.00 0.00 0.00 62 1018.9
20260506162839 28 99 4.8 11.3 0.00 0.00 0.00 62 1018.8
20260506162337 28 281 8.0 11.3 0.00 0.00 0.00 61 1018.7
20260506161835 28 68 3.2 8.0 0.00 0.00 0.00 62 1018.7
20260506161332 28 246 1.6 6.4 0.00 0.00 0.00 62 1019.1
20260506160829 28 231 4.8 8.0 0.00 0.00 0.00 63 1019.2
20260506160325 28 97 8.0 8.0 0.00 0.00 0.00 63 1019.1
20260506155824 28 96 4.8 6.4 0.00 0.00 0.00 63 1019.1
20260506155320 27 148 3.2 6.4 0.00 0.00 0.00 65 1019.2
20260506153433 27 173 3.2 16.1 0.00 0.00 0.00 65 1019.2
20260506152931 27 75 1.6 6.4 0.00 0.00 0.00 65 1019.1
20260506152427 27 59 6.4 6.4 0.00 0.00 0.00 66 1019.0
20260506151926 26 85 3.2 6.4 0.00 0.00 0.00 67 1019.1
20260506151422 26 242 8.0 8.0 0.00 0.00 0.00 67 1018.9
20260506150920 26 286 6.4 9.7 0.00 0.00 0.00 67 1018.9
20260506150416 26 75 3.2 6.4 0.00 0.00 0.00 68 1019.0
20260506145913 26 138 4.8 6.4 0.00 0.00 0.00 69 1018.9
20260506145409 26 315 3.2 9.7 0.00 0.00 0.00 69 1018.9
20260506144907 26 245 3.2 8.0 0.00 0.00 0.00 69 1018.7
20260506144403 25 154 3.2 9.7 0.00 0.00 0.00 70 1018.7
20260506143902 25 0 3.2 8.0 0.00 0.00 0.00 70 1019.0
20260506143358 25 57 3.2 6.4 0.00 0.00 0.00 70 1018.6
20260506142857 25 191 0.0 9.7 0.00 0.00 0.00 72 1018.6
20260506142354 25 99 0.0 8.0 0.00 0.00 0.00 72 1018.7
20260506141852 25 165 0.0 6.4 0.00 0.00 0.00 72 1018.5
20260506141350 25 196 3.2 14.5 0.00 0.00 0.00 72 1018.7
20260506140848 25 198 0.0 8.0 0.00 0.00 0.00 72 1018.7
20260506140345 24 106 3.2 11.3 0.00 0.00 0.00 73 1018.6
20260506135842 24 232 3.2 9.7 0.00 0.00 0.00 73 1019.0
20260506135338 24 74 0.0 6.4 0.00 0.00 0.00 73 1019.1
20260506134834 24 183 3.2 9.7 0.00 0.00 0.00 73 1018.9
20260506134331 24 290 6.4 8.0 0.00 0.00 0.00 73 1019.0
20260506133828 23 148 0.0 4.8 0.00 0.00 0.00 74 1018.9
20260506133325 23 105 3.2 6.4 0.00 0.00 0.00 74 1019.1
20260506132822 23 283 0.0 8.0 0.00 0.00 0.00 74 1018.8
20260506132319 23 303 0.0 8.0 0.00 0.00 0.00 75 1018.8
20260506131817 23 126 1.6 9.7 0.00 0.00 0.00 75 1018.9
20260506131313 23 233 3.2 4.8 0.00 0.00 0.00 75 1018.9
20260506130810 23 95 3.2 6.4 0.00 0.00 0.00 75 1019.0
20260506130306 23 121 8.0 9.7 0.00 0.00 0.00 76 1019.0
20260506125805 23 107 4.8 4.8 0.00 0.00 0.00 77 1018.7
20260506125305 22 180 1.6 4.8 0.00 0.00 0.00 77 1018.6
20260506124801 22 120 3.2 4.8 0.00 0.00 0.00 77 1018.6
20260506124257 22 103 3.2 4.8 0.00 0.00 0.00 77 1018.6
20260506123755 22 109 0.0 9.7 0.00 0.00 0.00 78 1018.5
20260506123254 22 186 0.0 4.8 0.00 0.00 0.00 79 1018.5
20260506122750 21 278 8.0 8.0 0.00 0.00 0.00 80 1018.5
20260506122247 21 148 3.2 4.8 0.00 0.00 0.00 81 1018.4
20260506121745 21 120 0.0 1.6 0.00 0.00 0.00 81 1018.3
20260506121242 21 95 0.0 3.2 0.00 0.00 0.00 82 1018.2
20260506120739 20 96 1.6 4.8 0.00 0.00 0.00 82 1018.2
20260506120237 20 106 0.0 3.2 0.00 0.00 0.00 82 1018.2
20260506115734 20 117 1.6 3.2 0.00 0.00 0.00 83 1018.1
20260506115232 20 126 0.0 0.0 0.00 0.00 0.00 83 1018.3
20260506114730 20 117 0.0 4.8 0.00 0.00 0.00 83 1018.0
20260506114227 20 97 0.0 1.6 0.00 0.00 0.00 83 1018.2
20260506113726 19 105 0.0 3.2 0.00 0.00 0.00 84 1018.1
20260506113223 19 120 0.0 1.6 0.00 0.00 0.00 84 1018.1
20260506112719 18 111 0.0 3.2 0.00 0.00 0.00 84 1018.1
20260506112217 18 90 0.0 0.0 0.00 0.00 0.00 84 1018.1
20260506111714 18 97 0.0 3.2 0.00 0.00 0.00 84 1018.1
20260506111212 18 90 0.0 3.2 0.00 0.00 0.00 84 1018.0
20260506110708 18 126 1.6 3.2 0.00 0.00 0.00 85 1017.9
20260506110206 18 90 0.0 3.2 0.00 0.00 0.00 85 1017.7
20260506105703 18 90 0.0 1.6 0.00 0.00 0.00 85 1017.8
20260506105159 18 114 0.0 1.6 0.00 0.00 0.00 85 1017.8
20260506104658 18 140 3.2 3.2 0.00 0.00 0.00 84 1017.7
20260506104155 18 106 0.0 1.6 0.00 0.00 0.00 84 1017.9
20260506103652 18 90 0.0 0.0 0.00 0.00 0.00 84 1017.8
20260506103149 18 90 0.0 0.0 0.00 0.00 0.00 84 1017.5
20260506102647 18 90 0.0 0.0 0.00 0.00 0.00 83 1017.5
20260506102144 18 99 0.0 3.2 0.00 0.00 0.00 83 1017.5
20260506101641 18 106 0.0 3.2 0.00 0.00 0.00 83 1017.6
20260506101138 18 81 0.0 3.2 0.00 0.00 0.00 83 1017.6
20260506100636 18 106 0.0 3.2 0.00 0.00 0.00 83 1017.6
20260506100134 18 90 0.0 3.2 0.00 0.00 0.00 83 1017.6
20260506095632 18 90 0.0 0.0 0.00 0.00 0.00 83 1017.6
20260506095129 18 90 0.0 1.6 0.00 0.00 0.00 83 1017.7
20260506094626 18 90 0.0 0.0 0.00 0.00 0.00 83 1017.6
20260506094124 18 99 0.0 0.0 0.00 0.00 0.00 82 1017.8
20260506093622 18 90 0.0 0.0 0.00 0.00 0.00 82 1017.6
20260506093119 18 90 0.0 1.6 0.00 0.00 0.00 82 1017.6
20260506092617 18 111 0.0 1.6 0.00 0.00 0.00 81 1017.6
20260506092113 18 90 0.0 1.6 0.00 0.00 0.00 81 1017.5
20260506091612 18 114 0.0 4.8 0.00 0.00 0.00 80 1017.3
20260506091109 19 96 0.0 1.6 0.00 0.00 0.00 80 1017.3
20260506090607 19 120 0.0 3.2 0.00 0.00 0.00 80 1017.4
20260506085600 18 103 3.2 3.2 0.00 0.00 0.00 80 1017.5
20260506085056 18 106 0.0 3.2 0.00 0.00 0.00 80 1017.5
20260506084553 18 90 0.0 3.2 0.00 0.00 0.00 80 1017.3
20260506084049 18 120 0.0 1.6 0.00 0.00 0.00 80 1017.4
20260506083547 18 90 0.0 0.0 0.00 0.00 0.00 80 1017.4
20260506083044 18 97 0.0 3.2 0.00 0.00 0.00 79 1017.4
20260506082540 19 194 0.0 4.8 0.00 0.00 0.00 79 1017.3
20260506082036 18 90 0.0 3.2 0.00 0.00 0.00 79 1017.4
20260506081535 18 99 0.0 3.2 0.00 0.00 0.00 79 1017.2
20260506081032 18 90 0.0 3.2 0.00 0.00 0.00 79 1017.3
20260506080529 18 77 1.6 1.6 0.00 0.00 0.00 79 1017.4
20260506073513 18 114 0.0 3.2 0.00 0.00 0.00 78 1017.0
20260506073010 18 121 0.0 3.2 0.00 0.00 0.00 79 1016.8
20260506072507 18 99 0.0 3.2 0.00 0.00 0.00 79 1017.0
20260506072004 18 90 1.6 1.6 0.00 0.00 0.00 79 1017.3
20260506071502 18 123 0.0 3.2 0.00 0.00 0.00 80 1017.1
20260506070959 18 120 0.0 0.0 0.00 0.00 0.00 80 1017.5
20260506070456 18 105 0.0 1.6 0.00 0.00 0.00 80 1017.3
20260506062434 18 114 0.0 0.0 0.00 0.00 0.00 77 1017.7
20260506061929 18 81 0.0 1.6 0.00 0.00 0.00 77 1017.8
20260506061426 18 126 0.0 1.6 0.00 0.00 0.00 77 1017.9
20260506060924 18 98 0.0 1.6 0.00 0.00 0.00 77 1017.7
20260506060422 18 98 0.0 1.6 0.00 0.00 0.00 76 1018.0
20260506051354 18 98 0.0 1.6 0.00 0.00 0.00 80 1018.1
20260506050851 18 99 0.0 0.0 0.00 0.00 0.00 81 1018.1
20260506050349 17 151 0.0 1.6 0.00 0.00 0.00 80 1018.3
20260506044839 18 90 0.0 0.0 0.00 0.00 0.00 80 1018.3
20260506044337 18 90 0.0 0.0 0.00 0.00 0.00 80 1018.4
20260506043834 18 90 0.0 0.0 0.00 0.00 0.00 79 1018.3
20260506043331 18 90 0.0 0.0 0.00 0.00 0.00 79 1018.3
20260506042829 18 90 0.0 0.0 0.00 0.00 0.00 79 1018.4
20260506042328 18 90 0.0 0.0 0.00 0.00 0.00 78 1018.4
20260506041827 18 90 0.0 0.0 0.00 0.00 0.00 78 1018.5
20260506041323 18 90 0.0 0.0 0.00 0.00 0.00 78 1018.4
20260506040820 18 90 0.0 0.0 0.00 0.00 0.00 78 1018.5
20260506040317 18 90 0.0 0.0 0.00 0.00 0.00 77 1018.5
20260506035814 18 90 0.0 0.0 0.00 0.00 0.00 77 1018.6
20260506035311 18 90 0.0 0.0 0.00 0.00 0.00 77 1018.6
20260506034808 18 90 0.0 0.0 0.00 0.00 0.00 76 1018.4
20260506034305 19 90 0.0 1.6 0.00 0.00 0.00 76 1018.5
20260506033802 18 114 0.0 0.0 0.00 0.00 0.00 76 1018.7
20260506033259 19 114 0.0 0.0 0.00 0.00 0.00 75 1018.7
20260506032756 18 114 0.0 0.0 0.00 0.00 0.00 75 1018.5
20260506032253 19 114 0.0 0.0 0.00 0.00 0.00 75 1018.5
20260506031749 19 114 0.0 0.0 0.00 0.00 0.00 74 1018.4
20260506031247 19 114 0.0 0.0 0.00 0.00 0.00 74 1018.5
20260506030745 19 114 0.0 0.0 0.00 0.00 0.00 74 1018.5
20260506030243 19 114 0.0 0.0 0.00 0.00 0.00 74 1018.5
20260506025739 20 114 0.0 0.0 0.00 0.00 0.00 74 1018.2
20260506025235 20 114 0.0 0.0 0.00 0.00 0.00 73 1018.3
20260506024732 20 114 0.0 0.0 0.00 0.00 0.00 73 1018.3
20260506024229 20 114 0.0 0.0 0.00 0.00 0.00 73 1018.3
20260506023725 20 114 0.0 0.0 0.00 0.00 0.00 73 1018.3
20260506023223 20 114 0.0 0.0 0.00 0.00 0.00 73 1018.2
20260506022719 20 114 0.0 1.6 0.00 0.00 0.00 73 1018.2
20260506022217 20 106 0.0 0.0 0.00 0.00 0.00 72 1017.8
20260506021715 20 106 0.0 0.0 0.00 0.00 0.00 72 1017.8
20260506021212 20 106 0.0 0.0 0.00 0.00 0.00 71 1017.8
20260506020708 21 106 0.0 0.0 0.00 0.00 0.00 70 1017.6
20260506020206 21 90 0.0 3.2 0.00 0.00 0.00 70 1017.5
20260506015704 21 105 0.0 4.8 0.00 0.00 0.00 70 1017.8
20260506015201 21 175 0.0 0.0 0.00 0.00 0.00 69 1017.7
20260506014658 21 99 0.0 3.2 0.00 0.00 0.00 69 1017.5
20260506014154 21 157 0.0 3.2 0.00 0.00 0.00 69 1017.6
20260506013652 21 99 0.0 4.8 0.00 0.00 0.00 69 1017.6
20260506013149 21 105 0.0 3.2 0.00 0.00 0.00 69 1017.7
20260506012645 21 157 0.0 4.8 0.00 0.00 0.00 69 1017.4
20260506012141 21 180 0.0 3.2 0.00 0.00 0.00 69 1017.6
20260506011639 21 154 0.0 6.4 0.00 0.00 0.00 68 1017.6
20260506011135 21 120 0.0 4.8 0.00 0.00 0.00 69 1017.4
20260506010634 21 126 0.0 3.2 0.00 0.00 0.00 69 1017.4
20260506010131 21 120 0.0 3.2 0.00 0.00 0.00 69 1017.2
20260506005628 22 117 0.0 3.2 0.00 0.00 0.00 68 1017.4
20260506005124 22 117 3.2 4.8 0.00 0.00 0.00 68 1017.3
20260506004621 22 161 3.2 4.8 0.00 0.00 0.00 67 1017.4
20260506004118 22 114 0.0 6.4 0.00 0.00 0.00 67 1017.1
20260506003614 22 154 1.6 6.4 0.00 0.00 0.00 66 1017.5
20260506003110 22 143 3.2 4.8 0.00 0.00 0.00 66 1017.2
20260506002607 22 120 4.8 6.4 0.00 0.00 0.00 66 1017.2
20260506002103 22 161 3.2 4.8 0.00 0.00 0.00 66 1017.3
20260506001559 22 188 0.0 4.8 0.00 0.00 0.00 67 1016.9
20260506001056 22 180 3.2 8.0 0.00 0.00 0.00 65 1017.2
20260506000554 22 77 3.2 6.4 0.00 0.00 0.00 65 1017.0
20260506000051 23 114 3.2 8.0 0.00 0.00 0.00 65 1016.8
20260505235549 23 113 3.2 8.0 0.00 0.00 0.00 64 1017.2
20260505235045 23 180 3.2 4.8 0.00 0.00 0.00 63 1016.8
20260505234542 23 139 3.2 11.3 0.00 0.00 0.00 63 1017.0
20260505234039 23 121 6.4 12.9 0.00 0.00 0.00 62 1017.1
20260505233537 23 108 4.8 9.7 0.00 0.00 0.00 62 1017.0
20260505233034 23 81 4.8 8.0 0.00 0.00 0.00 61 1017.0
20260505232532 24 79 0.0 8.0 0.00 0.00 0.00 61 1016.9
20260505232029 24 90 1.6 4.8 0.00 0.00 0.00 60 1016.8
20260505231526 25 90 3.2 6.4 0.00 0.00 0.00 59 1016.8
20260505231025 25 87 6.4 6.4 0.00 0.00 0.00 59 1016.7
20260505230521 25 115 3.2 8.0 0.00 0.00 0.00 58 1016.8
20260505230018 25 98 4.8 9.7 0.00 0.00 0.00 58 1016.7
20260505225515 25 90 3.2 8.0 0.00 0.00 0.00 57 1016.8
20260505225011 25 109 4.8 11.3 0.00 0.00 0.00 57 1016.7
20260505224508 26 85 3.2 6.4 0.00 0.00 0.00 56 1016.9
20260505224005 26 90 4.8 6.4 0.00 0.00 0.00 55 1016.8
20260505223502 26 90 0.0 11.3 0.00 0.00 0.00 53 1016.9
20260505222958 26 125 4.8 8.0 0.00 0.00 0.00 52 1016.7
20260505222455 26 112 4.8 6.4 0.00 0.00 0.00 52 1016.9
20260505221950 25 135 0.0 9.7 0.00 0.00 0.00 52 1017.0
20260505221448 26 131 8.0 11.3 0.00 0.00 0.00 53 1016.9
20260505220945 26 109 4.8 12.9 0.00 0.00 0.00 51 1016.9
20260505220442 27 114 3.2 6.4 0.00 0.00 0.00 50 1017.0
20260505215939 27 81 3.2 6.4 0.00 0.00 0.00 50 1016.9
20260505215438 27 75 4.8 12.9 0.00 0.00 0.00 49 1017.0
20260505214935 27 90 3.2 8.0 0.00 0.00 0.00 50 1016.9
20260505214433 26 152 3.2 11.3 0.00 0.00 0.00 49 1016.8
20260505213930 27 78 4.8 11.3 0.00 0.00 0.00 49 1016.9
20260505213427 27 60 8.0 11.3 0.00 0.00 0.00 47 1016.9
20260505212923 27 123 8.0 9.7 0.00 0.00 0.00 47 1016.9
20260505212420 28 150 4.8 4.8 0.00 0.00 0.00 47 1017.0
20260505211916 27 70 4.8 9.7 0.00 0.00 0.00 47 1016.8
20260505211414 27 65 3.2 8.0 0.00 0.00 0.00 47 1017.0
20260505210910 27 153 4.8 12.9 0.00 0.00 0.00 47 1017.0
20260505210408 27 79 4.8 11.3 0.00 0.00 0.00 48 1016.9
20260505205905 27 105 6.4 9.7 0.00 0.00 0.00 49 1016.8
20260505205403 27 70 4.8 12.9 0.00 0.00 0.00 49 1017.1